Location: McFarlands Corners
(41.4117°N, 81.3382°W)
Time: 01:55:27
(UTC+00:00)

Transit 4A - Pass Details

Date: 22 February 2026
Orbit: 863 x 978 km, 66.8° (Epoch: 13 March)

Event Time Altitude Azimuth Distance (km) Brightness Sun altitude
Rises 16:53:42 0° 330° (NNW) 3,616 10.5 37.5°
Reaches altitude 10° 16:56:13 10° 332° (NNW) 2,683 9.9 37.7°
Maximum altitude 17:02:32 81° 60° (ENE) 983 8.7 37.9°
Drops below altitude 10° 17:08:55 10° 148° (SSE) 2,715 11.4 38.1°
Sets 17:11:29 0° 149° (SSE) 3,662 11.8 38.2°
